EW8942 Weather Reports


Display with metric or nautical units.
time (UTC)temp
F
wind
direction
speed
MPH
gust
MPH
rain 1hr
in
rain 24hr
in
rain mn
in
humidity
%
barometer
mb
20240520154738 74 45 5.0 8.0 0.00 0.00 0.00 46 1006.8
20240520154225 75 90 4.0 11.0 0.00 0.00 0.00 47 1006.8
20240520152732 75 113 5.0 9.0 0.00 0.00 0.00 47 1006.8
20240520152229 75 113 4.0 9.0 0.00 0.00 0.00 46 1006.8
20240520151725 75 338 5.0 9.0 0.00 0.00 0.00 47 1006.8
20240520151221 75 45 3.0 7.0 0.00 0.00 0.00 47 1006.8
20240520150721 76 68 4.0 7.0 0.00 0.00 0.00 48 1006.8
20240520150239 76 90 5.0 7.0 0.00 0.00 0.00 48 1006.8
20240520145721 75 113 5.0 7.0 0.00 0.00 0.00 48 1006.8
20240520145222 75 315 3.0 7.0 0.00 0.00 0.00 48 1006.8
20240520144725 75 90 3.0 6.0 0.00 0.00 0.00 48 1006.8
20240520144241 75 68 4.0 6.0 0.00 0.00 0.00 48 1006.8
20240520143722 75 90 3.0 5.0 0.00 0.00 0.00 48 1006.8
20240520143220 75 68 2.0 8.0 0.00 0.00 0.00 49 1007.1
20240520142722 75 180 3.0 8.0 0.00 0.00 0.00 48 1007.1
20240520142235 75 135 4.0 8.0 0.00 0.00 0.00 48 1007.1
20240520141725 75 45 4.0 9.0 0.00 0.00 0.00 47 1007.1
20240520141222 76 68 4.0 10.0 0.00 0.00 0.00 48 1007.1
20240520140722 76 180 4.0 10.0 0.00 0.00 0.00 48 1007.1
20240520140229 76 68 5.0 11.0 0.00 0.00 0.00 47 1007.1
20240520135722 76 68 6.0 11.0 0.00 0.00 0.00 47 1007.1
20240520135221 76 23 5.0 11.0 0.00 0.00 0.00 46 1007.0
20240520133722 77 45 3.0 5.0 0.00 0.00 0.00 47 1007.0
20240520133228 77 315 3.0 8.0 0.00 0.00 0.00 48 1007.4
20240520132722 77 270 3.0 8.0 0.00 0.00 0.00 48 1007.4
20240520131725 78 270 4.0 6.0 0.00 0.00 0.00 46 1007.4
20240520131222 78 23 1.0 2.0 0.00 0.00 0.00 50 1007.7
20240520130740 78 158 0.0 2.0 0.00 0.00 0.00 50 1007.7
20240520130228 78 135 1.0 2.0 0.00 0.00 0.00 49 1007.7
20240520125722 78 158 1.0 3.0 0.00 0.00 0.00 49 1007.7
20240520125221 78 315 1.0 3.0 0.00 0.00 0.00 50 1008.0
20240520124724 78 248 1.0 4.0 0.00 0.00 0.00 50 1008.0
20240520124237 77 248 2.0 4.0 0.00 0.00 0.00 50 1008.0
20240520123725 77 225 2.0 4.0 0.00 0.00 0.00 49 1008.0
20240520123220 77 90 2.0 4.0 0.00 0.00 0.00 50 1008.1
20240520122740 77 135 2.0 3.0 0.00 0.00 0.00 51 1008.1
20240520122238 77 68 1.0 3.0 0.00 0.00 0.00 52 1008.1
20240520121221 76 68 2.0 6.0 0.00 0.00 0.00 52 1008.3
20240520120722 76 68 2.0 6.0 0.00 0.00 0.00 52 1008.3
20240520120225 76 90 2.0 5.0 0.00 0.00 0.00 53 1008.3
20240520115736 76 338 2.0 5.0 0.00 0.00 0.00 54 1008.3
20240520115224 75 135 2.0 5.0 0.00 0.00 0.00 54 1008.3
20240520114725 75 113 1.0 2.0 0.00 0.00 0.00 54 1008.3
20240520113722 74 180 1.0 2.0 0.00 0.00 0.00 54 1008.3
20240520113222 74 315 1.0 4.0 0.00 0.00 0.00 55 1008.3
20240520112722 74 338 1.0 4.0 0.00 0.00 0.00 56 1008.3
20240520112228 74 135 2.0 5.0 0.00 0.00 0.00 56 1008.3
20240520111724 74 113 2.0 6.0 0.00 0.00 0.00 57 1008.3
20240520111221 74 113 3.0 6.0 0.00 0.00 0.00 56 1008.3
20240520110725 74 45 3.0 6.0 0.00 0.00 0.00 55 1008.3
20240520110225 74 113 2.0 4.0 0.00 0.00 0.00 57 1008.3
20240520105221 73 270 0.0 4.0 0.00 0.00 0.00 59 1008.4
20240520104724 73 293 1.0 4.0 0.00 0.00 0.00 59 1008.4
20240520104225 73 248 1.0 4.0 0.00 0.00 0.00 59 1008.4
20240520103722 73 135 1.0 7.0 0.00 0.00 0.00 59 1008.4
20240520103221 73 113 2.0 7.0 0.00 0.00 0.00 60 1008.4
20240520102225 73 113 2.0 4.0 0.00 0.00 0.00 60 1008.4
20240520101724 73 135 2.0 4.0 0.00 0.00 0.00 61 1008.4
20240520101221 73 180 2.0 4.0 0.00 0.00 0.00 61 1008.3
20240520100225 73 135 3.0 7.0 0.00 0.00 0.00 64 1008.3
20240520095722 72 113 4.0 9.0 0.00 0.00 0.00 64 1008.3
20240520094724 72 135 4.0 9.0 0.00 0.00 0.00 65 1008.4
20240520094225 71 135 3.0 6.0 0.00 0.00 0.00 66 1008.4
20240520093722 71 45 3.0 6.0 0.00 0.00 0.00 66 1008.4
20240520093220 70 135 4.0 6.0 0.00 0.00 0.00 67 1008.4
20240520092237 69 113 1.0 4.0 0.00 0.00 0.00 68 1008.4
20240520091724 69 90 1.0 5.0 0.00 0.00 0.00 68 1008.4
20240520091222 68 135 2.0 5.0 0.00 0.00 0.00 68 1008.4
20240520090721 68 90 3.0 5.0 0.00 0.00 0.00 68 1008.4
20240520085722 68 68 1.0 3.0 0.00 0.00 0.00 70 1008.4
20240520085221 67 315 1.0 4.0 0.00 0.00 0.00 71 1008.6
20240520084724 67 113 2.0 4.0 0.00 0.00 0.00 71 1008.6
20240520084233 67 68 3.0 5.0 0.00 0.00 0.00 73 1008.6
20240520083722 67 113 3.0 5.0 0.00 0.00 0.00 74 1008.6
20240520083221 66 90 3.0 5.0 0.00 0.00 0.00 74 1008.6
20240520082722 66 68 3.0 4.0 0.00 0.00 0.00 75 1008.6
20240520082225 65 68 2.0 4.0 0.00 0.00 0.00 76 1008.6
20240520081725 65 315 2.0 4.0 0.00 0.00 0.00 75 1008.6
20240520081221 64 113 1.0 4.0 0.00 0.00 0.00 76 1008.8
20240520080232 63 45 3.0 4.0 0.00 0.00 0.00 77 1008.8
20240520075721 62 68 2.0 3.0 0.00 0.00 0.00 77 1008.8
20240520075222 62 338 1.0 3.0 0.00 0.00 0.00 78 1008.8
20240520074225 61 315 0.0 3.0 0.00 0.00 0.00 80 1008.8
20240520073721 61 45 1.0 3.0 0.00 0.00 0.00 80 1008.8
20240520073220 60 135 1.0 4.0 0.00 0.00 0.00 81 1008.7
20240520072225 60 135 1.0 4.0 0.00 0.00 0.00 82 1008.7
20240520071725 59 68 1.0 4.0 0.00 0.00 0.00 82 1008.7
20240520071220 59 113 1.0 3.0 0.00 0.00 0.00 83 1008.9
20240520070740 58 68 1.0 3.0 0.00 0.00 0.00 84 1008.9
20240520070225 58 113 1.0 3.0 0.00 0.00 0.00 84 1008.9
20240520065721 57 113 1.0 3.0 0.00 0.00 0.00 84 1008.9
20240520064727 56 90 1.0 4.0 0.00 0.00 0.00 85 1008.8
20240520064232 56 90 2.0 4.0 0.00 0.00 0.00 85 1008.8
20240520063220 55 68 2.0 3.0 0.00 0.00 0.00 86 1008.9
20240520062724 54 68 2.0 3.0 0.00 0.00 0.00 86 1008.9
20240520062232 53 315 1.0 2.0 0.00 0.00 0.00 86 1008.9
20240520061746 53 113 1.0 2.0 0.00 0.00 0.00 86 1008.9
20240520060722 52 90 0.0 2.0 0.00 0.00 0.00 87 1009.1
20240520060235 51 90 0.0 2.0 0.00 0.00 0.00 87 1009.1
20240520055722 51 135 0.0 3.0 0.00 0.00 0.00 87 1009.1
20240520053721 49 90 1.0 2.0 0.00 0.00 0.00 87 1009.1
20240520052724 48 158 0.0 2.0 0.00 0.00 0.00 87 1009.1
20240520052225 47 158 0.0 0.0 0.00 0.00 0.00 87 1009.1
20240520051724 47 113 0.0 0.0 0.00 0.00 0.00 87 1009.1
20240520050722 46 135 0.0 0.0 0.00 0.00 0.00 86 1008.7
20240520045224 46 90 0.0 0.0 0.00 0.00 0.00 86 1008.3
20240520044734 46 90 0.0 0.0 0.00 0.00 0.00 86 1008.3
20240520043734 46 68 0.0 0.0 0.00 0.00 0.00 86 1008.3
20240520043230 45 68 0.0 0.0 0.00 0.00 0.00 85 1008.1
20240520042229 45 158 0.0 0.0 0.00 0.00 0.00 85 1008.1
20240520041736 45 68 0.0 0.0 0.00 0.00 0.00 85 1008.1
20240520041240 45 68 0.0 0.0 0.00 0.00 0.00 85 1008.0
20240520040738 45 68 0.0 0.0 0.00 0.00 0.00 85 1008.0
20240520040232 46 45 0.0 0.0 0.00 0.00 0.00 85 1008.0
20240520035735 46 23 0.0 0.0 0.00 0.00 0.00 85 1008.0
20240520035232 46 135 0.0 0.0 0.00 0.00 0.00 85 1008.3
20240520034740 46 158 0.0 0.0 0.00 0.00 0.00 85 1008.3
20240520034236 46 68 0.0 0.0 0.00 0.00 0.00 85 1008.3
20240520033744 46 23 0.0 0.0 0.00 0.00 0.00 85 1008.3
20240520033229 46 68 0.0 0.0 0.00 0.00 0.00 85 1007.9
20240520032734 46 68 0.0 0.0 0.00 0.00 0.00 85 1007.9
20240520032229 46 23 0.0 0.0 0.00 0.00 0.00 85 1007.9
20240520031736 46 23 0.0 0.0 0.00 0.00 0.00 85 1007.9
20240520031229 46 90 0.0 0.0 0.00 0.00 0.00 85 1008.1
20240520030731 46 113 0.0 0.0 0.00 0.00 0.00 85 1008.1
20240520030238 46 68 0.0 0.0 0.00 0.00 0.00 84 1008.1
20240520025730 46 68 0.0 0.0 0.00 0.00 0.00 84 1008.1
20240520025234 46 68 0.0 0.0 0.00 0.00 0.00 84 1007.9
20240520024224 46 45 0.0 0.0 0.00 0.00 0.00 84 1007.9
20240520023736 46 23 0.0 0.0 0.00 0.00 0.00 84 1007.9
20240520023221 46 23 0.0 0.0 0.00 0.00 0.00 84 1007.9
20240520022722 46 338 0.0 0.0 0.00 0.00 0.00 84 1007.9
20240520022229 47 135 0.0 0.0 0.00 0.00 0.00 84 1007.9
20240520021220 47 248 0.0 0.0 0.00 0.00 0.00 84 1008.0
20240520020735 47 248 0.0 0.0 0.00 0.00 0.00 84 1008.0
20240520020232 48 225 0.0 0.0 0.00 0.00 0.00 84 1008.0
20240520015721 48 248 0.0 0.0 0.00 0.00 0.00 84 1008.0
20240520015220 48 248 0.0 0.0 0.00 0.00 0.00 84 1008.2
20240520014724 48 248 0.0 0.0 0.00 0.00 0.00 84 1008.2
20240520013722 48 315 0.0 0.0 0.00 0.00 0.00 83 1008.2
20240520013220 48 248 0.0 0.0 0.00 0.00 0.00 83 1008.3
20240520012722 48 135 0.0 0.0 0.00 0.00 0.00 83 1008.3
20240520011727 48 135 0.0 0.0 0.00 0.00 0.00 83 1008.3
20240520011234 48 203 0.0 3.0 0.00 0.00 0.00 83 1008.3
20240520010724 48 225 0.0 3.0 0.00 0.00 0.00 83 1008.3
20240520010227 48 113 0.0 0.0 0.00 0.00 0.00 83 1008.3
20240520005721 48 135 0.0 0.0 0.00 0.00 0.00 83 1008.3
20240520005220 48 158 0.0 0.0 0.00 0.00 0.00 83 1008.4
20240520004733 48 158 0.0 0.0 0.00 0.00 0.00 83 1008.4
20240520004225 49 315 0.0 0.0 0.00 0.00 0.00 82 1008.4
20240520003722 49 180 0.0 1.0 0.00 0.00 0.00 82 1008.4
20240520003220 49 90 0.0 3.0 0.00 0.00 0.00 82 1008.5
20240520002721 49 90 0.0 3.0 0.00 0.00 0.00 82 1008.5
20240520001734 49 135 0.0 2.0 0.00 0.00 0.00 82 1008.5
20240520001221 49 180 0.0 2.0 0.00 0.00 0.00 82 1008.6
20240520000725 49 135 0.0 0.0 0.00 0.00 0.00 82 1008.6
20240520000225 49 135 0.0 0.0 0.00 0.00 0.00 82 1008.6
20240519234234 49 135 0.0 0.0 0.00 0.00 0.00 81 1008.6
20240519233721 49 68 0.0 0.0 0.00 0.00 0.00 81 1008.6
20240519233221 49 68 0.0 0.0 0.00 0.00 0.00 80 1008.4
20240519232233 50 68 0.0 0.0 0.00 0.00 0.00 80 1008.4
20240519231724 50 158 0.0 0.0 0.00 0.00 0.00 80 1008.4
20240519231221 50 113 0.0 0.0 0.00 0.00 0.00 80 1008.5
20240519230722 51 135 0.0 0.0 0.00 0.00 0.00 80 1008.5
20240519230225 51 135 0.0 0.0 0.00 0.00 0.00 80 1008.5
20240519224724 51 135 0.0 0.0 0.00 0.00 0.00 79 1008.7
20240519224235 51 180 0.0 0.0 0.00 0.00 0.00 79 1008.7
20240519223221 51 293 0.0 0.0 0.00 0.00 0.00 79 1008.8
20240519222722 51 270 0.0 0.0 0.00 0.00 0.00 79 1008.8
20240519222242 51 270 0.0 0.0 0.00 0.00 0.00 79 1008.8
20240519221221 52 113 0.0 0.0 0.00 0.00 0.00 78 1008.6
20240519220743 52 113 0.0 2.0 0.00 0.00 0.00 78 1008.6
20240519220236 52 293 0.0 3.0 0.00 0.00 0.00 77 1008.6
20240519215722 52 135 0.0 3.0 0.00 0.00 0.00 77 1008.6
20240519215220 53 135 0.0 3.0 0.00 0.00 0.00 77 1008.7
20240519214724 53 135 0.0 0.0 0.00 0.00 0.00 77 1008.7
20240519214234 53 158 0.0 0.0 0.00 0.00 0.00 77 1008.7
20240519213736 53 135 0.0 0.0 0.00 0.00 0.00 76 1008.7
20240519213220 53 135 0.0 0.0 0.00 0.00 0.00 76 1008.7
20240519212721 54 135 0.0 0.0 0.00 0.00 0.00 76 1008.7
20240519212225 54 158 0.0 0.0 0.00 0.00 0.00 75 1008.7
20240519211221 55 113 0.0 0.0 0.00 0.00 0.00 75 1008.8
20240519210722 55 113 0.0 0.0 0.00 0.00 0.00 75 1008.8
20240519210451 55 135 0.0 0.0 0.00 0.00 0.00 74 1008.8
20240519205722 55 158 0.0 0.0 0.00 0.00 0.00 74 1008.8
20240519204736 56 113 0.0 0.0 0.00 0.00 0.00 73 1008.6
20240519203721 56 68 0.0 0.0 0.00 0.00 0.00 73 1008.6
20240519203220 57 45 0.0 0.0 0.00 0.00 0.00 73 1008.4
20240519202721 57 90 0.0 0.0 0.00 0.00 0.00 72 1008.4
20240519202232 57 113 0.0 0.0 0.00 0.00 0.00 72 1008.4
20240519201725 57 113 0.0 0.0 0.00 0.00 0.00 72 1008.4
20240519201221 57 180 0.0 0.0 0.00 0.00 0.00 71 1008.3
20240519200722 58 135 0.0 0.0 0.00 0.00 0.00 71 1008.3
20240519200231 58 248 0.0 0.0 0.00 0.00 0.00 70 1008.3
20240519195738 58 270 0.0 0.0 0.00 0.00 0.00 70 1008.3
20240519194744 58 270 0.0 0.0 0.00 0.00 0.00 69 1008.1
20240519194238 59 135 0.0 0.0 0.00 0.00 0.00 68 1008.1
20240519193722 59 135 0.0 0.0 0.00 0.00 0.00 68 1008.1
20240519193220 59 158 0.0 4.0 0.00 0.00 0.00 67 1008.1
20240519192723 60 45 0.0 4.0 0.00 0.00 0.00 67 1008.1
20240519192247 60 45 2.0 4.0 0.00 0.00 0.00 66 1008.1
20240519191221 60 248 2.0 4.0 0.00 0.00 0.00 66 1007.9
20240519190722 61 293 1.0 3.0 0.00 0.00 0.00 65 1007.9
20240519185722 61 248 1.0 3.0 0.00 0.00 0.00 65 1007.9
20240519184725 62 270 1.0 4.0 0.00 0.00 0.00 64 1007.9
20240519183725 62 270 2.0 4.0 0.00 0.00 0.00 64 1007.9
20240519183222 62 270 2.0 4.0 0.00 0.00 0.00 64 1007.9
20240519182722 62 248 2.0 4.0 0.00 0.00 0.00 64 1007.9
20240519182238 63 293 2.0 4.0 0.00 0.00 0.00 63 1007.9
20240519181727 63 270 2.0 7.0 0.00 0.00 0.00 64 1007.9
20240519181220 63 270 3.0 7.0 0.00 0.00 0.00 64 1007.8
20240519180225 63 248 5.0 9.0 0.00 0.00 0.00 64 1007.8
20240519175722 63 293 4.0 9.0 0.00 0.00 0.00 64 1007.8
20240519175220 64 293 2.0 3.0 0.00 0.00 0.00 65 1007.8
20240519174734 64 270 1.0 4.0 0.00 0.00 0.00 65 1007.8
20240519174227 64 315 2.0 4.0 0.00 0.00 0.00 65 1007.8
20240519173220 64 315 3.0 5.0 0.00 0.00 0.00 63 1007.9
20240519172722 65 315 3.0 5.0 0.00 0.00 0.00 63 1007.9
20240519172234 65 315 3.0 10.0 0.00 0.00 0.00 63 1007.9
20240519171727 65 315 3.0 11.0 0.00 0.00 0.00 63 1007.9
20240519171221 65 315 5.0 12.0 0.00 0.00 0.00 62 1007.8
20240519170722 65 315 7.0 12.0 0.00 0.00 0.00 62 1007.8
20240519170231 66 315 7.0 8.0 0.00 0.00 0.00 61 1007.8
20240519165723 66 315 5.0 8.0 0.00 0.00 0.00 60 1007.8
20240519165222 66 338 4.0 6.0 0.00 0.00 0.00 60 1007.5
20240519164724 66 293 3.0 8.0 0.00 0.00 0.00 60 1007.5
20240519164240 66 270 3.0 8.0 0.00 0.00 0.00 59 1007.5
20240519163722 66 270 4.0 8.0 0.00 0.00 0.00 59 1007.5
20240519163223 66 23 5.0 16.0 0.00 0.00 0.00 58 1007.4
20240519162721 66 315 6.0 16.0 0.00 0.00 0.00 58 1007.4
20240519161727 67 315 5.0 9.0 0.00 0.00 0.00 56 1007.4
20240519161221 67 45 4.0 9.0 0.00 0.00 0.00 57 1007.7
20240519160722 68 248 4.0 7.0 0.00 0.00 0.00 58 1007.7
20240519160230 68 158 3.0 7.0 0.00 0.00 0.00 58 1007.7
20240519155221 67 338 3.0 8.0 0.00 0.00 0.00 57 1007.9